STARLINK-31995, 59958

Orbit data source: Space-Track

STARLINK-31995, 59958 is a payload satellite owned by SpaceX/Seattle (US) in LEO that was launched on Wed, 05 Jun 2024 UTC via an FALCON 9 launch vehicle from the Air Force Eastern Test Range (AFETR). Payload-class satellites include a variety of spacecraft equipped with specific instruments for various scientific and technological missions. These include communications satellites like Starlink; space stations such as the ISS; scientific satellites like the Hubble; Earth observation satellites from companies like Planet Labs, Umbra, and HawkEye 360; GPS; miniature CubeSats for education and research; and military/defense satellites.

Loading next visibility...
Identifier
59958, 2024-107P
Orbit
LEO
Last TLE update
10 hours ago
Origin
Manufacturer
SpaceX/Seattle
Mission
Operational spacecraft
Bus & Motor
STARLINK V2M, Unknown motor
Mass
730 kg wet, ~700 kg dry
Launch date (UTC)
2024-06-05 (11 months ago)
Launch vehicle
FALCON 9
Launch site
Air Force Eastern Test Range (AFETR)
Object type
Payload
Rocket body
Debris
Shape & HBR
Unknown
Radar Cross Section
Large (>1 m²)

Expand to show TLE details & history

TLE from 10 hours ago
0 STARLINK-31995
1 59958U 24107P   25128.97311330  .00000778  00000-0  38389-4 0  9992
2 59958  53.1611  40.8625 0001093  82.9015 277.2110 15.30194260 53030
Epoch: 2025-05-08T23:21Z
Definitive object data (Epoch: 2025-05-08T23:21:16.989Z)
Latitude
-0.00001°
Longitude
-176.49422°
Altitude
476.038 km
Speed
7.629 km/s
True Right ascension
02h 43m 26s
True Declination
0° 00' 00"
Sunlit
Object was in daylight at TLE epoch
Visualization TLE readout
Latitude
-30.05354°
Longitude
27.03615°
Altitude
484.915 km
Speed
7.622 km/s
Apparent Right ascension
12h 43m 54s
Apparent Declination
-71° 55' 48"
Sunlit
Object is in full shadow
Visualization observer readout
Local Sidereal Time
17:52:00
Azimuth
201.335° SSW
Elevation
-33.821°
Doppler factor
1
Orbital elements
Apogee altitude
476.238 km
Perigee altitude
474.739 km
Semi-major axis
6,853.625 km
Eccentricity
0.0001093
Inclination
53.1611°
RAAN
40.8625°
Arg. of periapsis
82.9015°
True anomaly
277.19857°
Mean anomaly
277.211°
Eccentric anomaly
277.20479°
Mean motion
3.82527 °/min
BSTAR
0.000038389
Orbital period
94.11 mins
Loading maneuver chart data...
Loading SW <> Apogee altitude chart data...
Loading historical data...
Loading historical data...
Loading historical data...
Loading historical data...
Loading historical data...
Loading historical data...
Loading historical data...

STARLINK-31995 Visibility forecast

Observer location: undefined°, undefined°

Span
Click to sort rows by Start time (UTC) header in descending order
Start Az.
Max El. time (UTC)
Max El. Az.
Max El.
End time (UTC)
End Az.
5 mins2025-05-09 19:53:38.537Z179.683° S2025-05-09 19:55:38.537Z137.968° SSE23.434°2025-05-09 19:58:38.537Z76.192° E
5 mins2025-05-09 21:31:38.537Z269.591° W2025-05-09 21:33:38.537Z325.757° NNW31.546°2025-05-09 21:36:38.537Z33.975° NE
5 mins2025-05-10 02:28:38.537Z342.087° N2025-05-10 02:30:38.537Z30.497° NE24.873°2025-05-10 02:33:38.537Z88.511° E
5 mins2025-05-10 04:06:38.537Z284.499° WNW2025-05-10 04:08:38.537Z223.37° SW33.172°2025-05-10 04:11:38.537Z157.534° S
|